Charlottesville, VA

8:48 PM EDT on October 22, 2019 (GMT -0400)
Charlottesville-Albemarle

Weather History for KCHO - August, 2019

Change the Weather History Date:

Tuesday, August 6, 2019

  Actual Average Record
Temperature  
Mean Temperature 80 °F 75 °F  
Max Temperature 92 °F 85 °F 103 °F (1918)
Min Temperature 68 °F 64 °F 47 °F (1994)
Degree Days  
Heating Degree Days 0 0  
Month to date heating degree days 0 0  
Since 1 June heating degree days 0 12  
Since 1 July heating degree days 0 1  
Cooling Degree Days 15 10  
Month to date cooling degree days 83 60  
Year to date cooling degree days 1151 690  
Since 1 June cooling degree days 865 604  
Growing Degree Days 29 (Base 50)    
Moisture  
Dew Point 67 °F    
Average Humidity 67    
Maximum Humidity 90    
Minimum Humidity 44    
Precipitation  
Precipitation T in 0.14 in 1.75 in (2009)
Month to date precipitation 0.22 0.86  
Year to date precipitation 25.52 25.38  
Sea Level Pressure  
Sea Level Pressure 29.87 in    
Wind  
Wind Speed 3 mph (SSW)    
Max Wind Speed 12 mph    
Max Gust Speed 15 mph    
Visibility 8 miles    
Events Rain    
T = Trace of Precipitation, MM = Missing Value Source: NWS Daily Summary

Daily Weather History Graph

Daily Weather History Graph

Search for Another Location

Airport or City:

Astronomy

Aug. 06, 2019 Rise Set
Actual Time 6:20 AM EDT 8:18 PM EDT
Civil Twilight 5:51 AM EDT 8:47 PM EDT
Nautical Twilight 5:16 AM EDT 9:22 PM EDT
Astronomical Twilight 4:38 AM EDT 9:59 PM EDT
Moon 12:37 PM EDT (8/6) No Moon Set
Length of Visible Light 14h 55m
Length of Day
13h 57m
Waxing Crescent, 38% of the Moon is Illuminated
Aug 6
Waxing Crescent
Aug 7
First Quarter
Aug 15
Full
Aug 23
Last Quarter
Aug 30
New

Hourly Weather History & Observations

Time (EDT) Temp. Heat Index Dew Point Humidity Pressure Visibility Wind Dir Wind Speed Gust Speed Precip Events Conditions
12:53 AM 71.1 °F - 64.9 °F 81% 29.92 in 10.0 mi Calm Calm - N/A   Clear
1:53 AM 70.0 °F - 64.9 °F 84% 29.92 in 10.0 mi Calm Calm - N/A   Clear
2:53 AM 69.1 °F - 64.9 °F 87% 29.91 in 7.0 mi Calm Calm - N/A   Clear
3:53 AM 70.0 °F - 66.0 °F 87% 29.90 in 7.0 mi Calm Calm - N/A   Clear
4:35 AM 68.0 °F - 64.9 °F 90% 29.92 in 2.5 mi SSW 4.6 mph - N/A   Partly Cloudy
4:39 AM 68.0 °F - 64.9 °F 90% 29.92 in 1.0 mi SSW 4.6 mph - N/A   Mist
4:47 AM 68.0 °F - 64.4 °F 88% 29.92 in 2.0 mi SSW 3.5 mph - N/A   Partly Cloudy
4:53 AM 68.0 °F - 64.9 °F 90% 29.90 in 5.0 mi SW 3.5 mph - N/A   Partly Cloudy
5:53 AM 68.0 °F - 64.0 °F 87% 29.88 in 5.0 mi Calm Calm - N/A   Clear
6:38 AM 69.1 °F - 64.9 °F 87% 29.91 in 3.0 mi Calm Calm - N/A   Partly Cloudy
6:53 AM 69.1 °F - 64.9 °F 87% 29.89 in 10.0 mi Variable 3.5 mph - N/A   Clear
7:53 AM 71.1 °F - 66.9 °F 87% 29.88 in 8.0 mi Calm Calm - N/A   Clear
8:53 AM 75.9 °F - 68.0 °F 76% 29.89 in 10.0 mi Variable 3.5 mph - N/A   Clear
9:53 AM 80.1 °F 82.9 °F 69.1 °F 69% 29.89 in 10.0 mi Variable 3.5 mph - N/A   Clear
10:53 AM 84.0 °F 87.0 °F 68.0 °F 58% 29.89 in 10.0 mi Variable 3.5 mph - N/A   Clear
11:53 AM 87.1 °F 89.9 °F 66.9 °F 51% 29.88 in 10.0 mi Variable 3.5 mph - N/A   Clear
12:53 PM 89.1 °F 91.3 °F 66.0 °F 46% 29.87 in 10.0 mi Variable 5.8 mph - N/A   Partly Cloudy
1:53 PM 90.0 °F 92.8 °F 66.9 °F 46% 29.85 in 10.0 mi South 5.8 mph - N/A   Scattered Clouds
2:53 PM 90.0 °F 91.7 °F 64.9 °F 43% 29.83 in 10.0 mi SSE 8.1 mph - N/A   Clear
3:53 PM 90.0 °F 91.7 °F 64.9 °F 43% 29.81 in 10.0 mi SSW 9.2 mph - N/A   Scattered Clouds
4:53 PM 87.1 °F 89.9 °F 66.9 °F 51% 29.81 in 10.0 mi SSW 9.2 mph - N/A   Partly Cloudy
5:53 PM 84.0 °F 89.0 °F 71.1 °F 65% 29.81 in 10.0 mi Calm Calm - N/A   Overcast
6:53 PM 77.0 °F - 69.1 °F 76% 29.81 in 10.0 mi NNW 3.5 mph - 0.00 in Rain Light Rain
7:53 PM 78.1 °F - 69.1 °F 74% 29.80 in 10.0 mi Calm Calm - 0.00 in   Partly Cloudy
8:53 PM 75.0 °F - 69.1 °F 82% 29.81 in 10.0 mi Calm Calm - N/A   Clear
9:53 PM 75.0 °F - 69.1 °F 82% 29.83 in 10.0 mi Calm Calm - N/A   Clear
10:53 PM 75.9 °F - 68.0 °F 76% 29.83 in 10.0 mi WSW 3.5 mph - N/A   Clear
11:53 PM 73.9 °F - 68.0 °F 82% 29.82 in 9.0 mi SSW 3.5 mph - N/A   Clear